Location: Brachbach
(49.1847°N, 9.7240°E)
Time: 22:38:44
(UTC+00:00)

O/OREOS (USA 219) - Visible Passes

Search period start: 13 March 2026 00:00
Search period end: 23 March 2026 00:00
Orbit: 576 x 599 km, 72.0° (Epoch: 13 March)

Date Brightness Start Highest point End Pass type
(mag) Time Alt. Az. Time Alt. Az. Time Alt. Az.
13 Mar ? 18:31:55 10° NW 18:36:10 55° WSW 18:40:21 10° S visible
14 Mar ? 18:39:28 10° NW 18:43:26 35° WSW 18:47:20 10° S visible
15 Mar ? 18:47:11 10° NW 18:50:37 23° WSW 18:54:02 10° SSW visible
16 Mar ? 18:55:15 10° WNW 18:57:46 15° W 19:00:16 10° SW visible
